Regional Weather Roundup
Issued by NWS

Home | Current Version | Previous Version | Graphics & Text | Print | Product List | Glossary On
Versions: 1 2 3 4 5 6 7 8 9 10 11 12 13 14 15 16 17 18 19 20 21 22 23 24 25 26 27 28 29 30 31 32 33 34 35 36 37 38 39 40 41 42 43 44 45 46 47 48 49 50
000
ASUS43 KBIS 220510
RWRND

NORTH DAKOTA REGIONAL WEATHER ROUNDUP
NATIONAL WEATHER SERVICE BISMARCK ND
1200 AM CDT TUE AUG 22 2017

NOTE: "FAIR" INDICATES FEW OR NO CLOUDS BELOW 12,000 FEET WITH NO
SIGNIFICANT WEATHER AND/OR OBSTRUCTIONS TO VISIBILITY.


NDZ001>003-009>011-017-220600-
NORTHWEST NORTH DAKOTA

CITY           SKY/WX    TMP DP  RH WIND       PRES   REMARKS
WILLISTON      CLEAR     54  37  52 NE3       30.16S
MINOT          CLEAR     58  41  53 W9        30.11R
MINOT AFB      CLEAR     49  42  76 W9        30.10R
$$

NDZ018>021-031>035-040>046-220600-
SOUTHWEST NORTH DAKOTA

CITY           SKY/WX    TMP DP  RH WIND       PRES   REMARKS
BISMARCK       CLEAR     57  46  66 NW5       30.13R
DICKINSON      CLEAR     52  38  58 W7        30.16S
GARRISON         N/A     50  43  77 NW9       30.12S
HETTINGER ARPT CLEAR     47  40  76 W5        30.19S
$$

NDZ004>008-012>016-024-026-027-054-220600-
NORTHEAST NORTH DAKOTA

CITY           SKY/WX    TMP DP  RH WIND       PRES   REMARKS
GRAND FORKS    CLEAR     53  52  96 W7        29.99R
GRND FRKS AFB  CLEAR     50  49  96 NW5       30.00S
DEVILS LAKE    CLEAR     54  47  77 NW7       30.06S
$$

NDZ022-023-025-028>030-036>039-047>053-220600-
SOUTHEAST NORTH DAKOTA

CITY           SKY/WX    TMP DP  RH WIND       PRES   REMARKS
FARGO          CLEAR     59  53  80 N10       29.99R
JAMESTOWN      CLEAR     53  47  79 NW8       30.06R
$$





USA.gov is the U.S. government's official web portal to all federal, state and local government web resources and services.